Starlink 32748

operational
NORAD ID: 62524 Int'l Des: 2025-004 Owner: SPXS Country: US Constellation: starlink
LEOCIRCULAR

关于 Starlink 32748

正在加载描述...

实时位置

正在加载3D地球...

即将过境

高度历史

Altitude vs Time

uPlot chart will show altitude changes over time

两行轨道根数

1 62524U 25004P 25260.95812847 .00035624 00000-0 12968-2 0 9997
2 62524 42.9971 115.1897 0000935 261.7241 98.3505 15.27606414 40049
Epoch: Sep 17, 2025 • Age: 34 hours

当前状态

高度 491.5 km
速度 7.62 km/s
星下点 -33.46°S, 161.01°W
发射日期 Jan 8, 2025
运行时间 0.6 years
类型 internet

技术详情

分类 Payload
质量 730.00 kg
干质量 700.00 kg
总质量 730.00 kg
长度 0.30 m
直径 4.10 m
跨度 29.00 m
形状 Box + pan
制造商 SPXS
平台类型 Starlink V2M
阶段状态 In Orbit
所有者/国家 SPXS/US

大型星座

Loading constellations...